Time,TemperatureF,DewpointF,PressureIn,WindDirection,WindDirectionDegrees,WindSpeedMPH,WindSpeedGustMPH,Humidity,HourlyPrecipIn,Conditions,Clouds,dailyrainin,SoftwareType,DateUTC
2013-02-13 00:01:00,28.0,19.0,-100.00,ESE,113,4.0,7.0,69,-99.99,,,-99.99,,2013-02-13 08:01:00,
2013-02-13 00:11:00,28.0,19.0,-100.00,ESE,113,4.0,7.0,69,-99.99,,,-99.99,,2013-02-13 08:11:00,
2013-02-13 00:21:00,27.0,20.0,-100.00,ESE,110,1.0,3.0,75,-99.99,,,-99.99,,2013-02-13 08:21:00,
2013-02-13 00:31:00,27.0,20.0,-100.00,ESE,110,1.0,3.0,75,-99.99,,,-99.99,,2013-02-13 08:31:00,
2013-02-13 00:43:00,28.0,20.0,-100.00,ESE,103,2.0,4.0,71,-99.99,,,-99.99,,2013-02-13 08:43:00,
2013-02-13 00:52:00,28.0,20.0,-100.00,ESE,103,2.0,4.0,71,-99.99,,,-99.99,,2013-02-13 08:52:00,
2013-02-13 01:01:00,25.0,18.0,-100.00,NE,48,2.0,3.0,74,-99.99,,,-99.99,,2013-02-13 09:01:00,
2013-02-13 01:11:00,25.0,18.0,-100.00,NE,48,2.0,3.0,74,-99.99,,,-99.99,,2013-02-13 09:11:00,
2013-02-13 01:21:00,26.0,19.0,-100.00,ENE,76,2.0,4.0,74,-99.99,,,-99.99,,2013-02-13 09:21:00,
2013-02-13 01:31:00,26.0,19.0,-100.00,ENE,76,2.0,4.0,74,-99.99,,,-99.99,,2013-02-13 09:31:00,
2013-02-13 01:41:00,25.0,19.0,-100.00,ESE,102,1.0,3.0,76,-99.99,,,-99.99,,2013-02-13 09:41:00,
2013-02-13 01:52:00,25.0,19.0,-100.00,ESE,102,1.0,3.0,76,-99.99,,,-99.99,,2013-02-13 09:52:00,
2013-02-13 02:01:00,25.0,19.0,-100.00,ESE,106,2.0,4.0,77,-99.99,,,-99.99,,2013-02-13 10:01:00,
2013-02-13 02:11:00,25.0,19.0,-100.00,ESE,106,2.0,4.0,77,-99.99,,,-99.99,,2013-02-13 10:11:00,
2013-02-13 02:21:00,24.0,19.0,-100.00,ESE,107,2.0,4.0,79,-99.99,,,-99.99,,2013-02-13 10:21:00,
2013-02-13 02:31:00,24.0,19.0,-100.00,ESE,107,2.0,4.0,79,-99.99,,,-99.99,,2013-02-13 10:31:00,
2013-02-13 02:41:00,24.0,20.0,-100.00,ESE,116,2.0,5.0,82,-99.99,,,-99.99,,2013-02-13 10:41:00,
2013-02-13 02:52:00,24.0,20.0,-100.00,ESE,116,2.0,5.0,82,-99.99,,,-99.99,,2013-02-13 10:52:00,
2013-02-13 03:01:00,24.0,18.0,-100.00,East,96,3.0,4.0,76,-99.99,,,-99.99,,2013-02-13 11:01:00,
2013-02-13 03:11:00,24.0,18.0,-100.00,East,96,3.0,4.0,76,-99.99,,,-99.99,,2013-02-13 11:11:00,
2013-02-13 03:22:00,24.0,18.0,-100.00,East,100,2.0,4.0,79,-99.99,,,-99.99,,2013-02-13 11:22:00,
2013-02-13 03:32:00,24.0,18.0,-100.00,East,100,2.0,4.0,79,-99.99,,,-99.99,,2013-02-13 11:32:00,
2013-02-13 03:42:00,23.0,18.0,-100.00,ESE,104,2.0,4.0,81,-99.99,,,-99.99,,2013-02-13 11:42:00,
2013-02-13 03:52:00,23.0,18.0,-100.00,ESE,104,2.0,4.0,81,-99.99,,,-99.99,,2013-02-13 11:52:00,
2013-02-13 04:02:00,23.0,19.0,-100.00,ESE,123,2.0,4.0,83,-99.99,,,-99.99,,2013-02-13 12:02:00,
2013-02-13 04:11:00,23.0,19.0,-100.00,ESE,123,2.0,4.0,83,-99.99,,,-99.99,,2013-02-13 12:11:00,
2013-02-13 04:21:00,23.0,19.0,-100.00,ESE,107,3.0,5.0,82,-99.99,,,-99.99,,2013-02-13 12:21:00,
2013-02-13 04:32:00,23.0,19.0,-100.00,ESE,107,3.0,5.0,82,-99.99,,,-99.99,,2013-02-13 12:32:00,
2013-02-13 04:42:00,22.0,18.0,-100.00,SE,126,3.0,5.0,84,-99.99,,,-99.99,,2013-02-13 12:42:00,
2013-02-13 04:52:00,22.0,18.0,-100.00,SE,126,3.0,5.0,84,-99.99,,,-99.99,,2013-02-13 12:52:00,
2013-02-13 05:02:00,22.0,18.0,-100.00,ESE,121,2.0,3.0,86,-99.99,,,-99.99,,2013-02-13 13:02:00,
2013-02-13 05:11:00,22.0,18.0,-100.00,ESE,121,2.0,3.0,86,-99.99,,,-99.99,,2013-02-13 13:11:00,
2013-02-13 05:21:00,23.0,18.0,-100.00,East,86,2.0,3.0,82,-99.99,,,-99.99,,2013-02-13 13:21:00,
2013-02-13 05:31:00,23.0,18.0,-100.00,East,86,2.0,3.0,82,-99.99,,,-99.99,,2013-02-13 13:31:00,
2013-02-13 05:41:00,22.0,17.0,-100.00,East,100,1.0,3.0,82,-99.99,,,-99.99,,2013-02-13 13:41:00,
2013-02-13 05:52:00,22.0,17.0,-100.00,East,100,1.0,3.0,82,-99.99,,,-99.99,,2013-02-13 13:52:00,
2013-02-13 06:01:00,21.0,17.0,-100.00,East,79,0.0,1.0,84,-99.99,,,-99.99,,2013-02-13 14:01:00,
2013-02-13 06:11:00,21.0,17.0,-100.00,East,79,0.0,1.0,84,-99.99,,,-99.99,,2013-02-13 14:11:00,
2013-02-13 06:21:00,21.0,18.0,-100.00,ESE,120,2.0,3.0,86,-99.99,,,-99.99,,2013-02-13 14:21:00,
2013-02-13 06:31:00,21.0,18.0,-100.00,ESE,120,2.0,3.0,86,-99.99,,,-99.99,,2013-02-13 14:31:00,
2013-02-13 06:41:00,22.0,17.0,-100.00,ESE,112,3.0,5.0,83,-99.99,,,-99.99,,2013-02-13 14:41:00,
2013-02-13 06:52:00,22.0,17.0,-100.00,ESE,112,3.0,5.0,83,-99.99,,,-99.99,,2013-02-13 14:52:00,
2013-02-13 07:01:00,22.0,17.0,-100.00,ENE,72,3.0,7.0,81,-99.99,,,-99.99,,2013-02-13 15:01:00,
2013-02-13 07:11:00,22.0,17.0,-100.00,ENE,72,3.0,7.0,81,-99.99,,,-99.99,,2013-02-13 15:11:00,
2013-02-13 07:21:00,20.0,17.0,-100.00,SSE,164,0.0,2.0,88,-99.99,,,-99.99,,2013-02-13 15:21:00,
2013-02-13 07:32:00,20.0,17.0,-100.00,SSE,164,0.0,2.0,88,-99.99,,,-99.99,,2013-02-13 15:32:00,
2013-02-13 07:42:00,20.0,18.0,-100.00,SSE,147,1.0,2.0,89,-99.99,,,-99.99,,2013-02-13 15:42:00,
2013-02-13 07:52:00,20.0,18.0,-100.00,SSE,147,1.0,2.0,89,-99.99,,,-99.99,,2013-02-13 15:52:00,
2013-02-13 08:01:00,22.0,19.0,-100.00,ESE,123,1.0,3.0,86,-99.99,,,-99.99,,2013-02-13 16:01:00,
2013-02-13 08:11:00,22.0,19.0,-100.00,ESE,123,1.0,3.0,86,-99.99,,,-99.99,,2013-02-13 16:11:00,
2013-02-13 08:21:00,24.0,19.0,-100.00,ESE,114,3.0,6.0,81,-99.99,,,-99.99,,2013-02-13 16:21:00,
2013-02-13 08:31:00,24.0,19.0,-100.00,ESE,114,3.0,6.0,81,-99.99,,,-99.99,,2013-02-13 16:31:00,
2013-02-13 08:41:00,27.0,21.0,-100.00,ESE,117,1.0,2.0,77,-99.99,,,-99.99,,2013-02-13 16:41:00,
2013-02-13 08:52:00,27.0,21.0,-100.00,ESE,117,1.0,2.0,77,-99.99,,,-99.99,,2013-02-13 16:52:00,
2013-02-13 09:01:00,30.0,21.0,-100.00,ESE,123,0.0,2.0,69,-99.99,,,-99.99,,2013-02-13 17:01:00,
2013-02-13 09:11:00,30.0,21.0,-100.00,ESE,123,0.0,2.0,69,-99.99,,,-99.99,,2013-02-13 17:11:00,
2013-02-13 09:21:00,31.0,21.0,-100.00,WNW,287,1.0,3.0,68,-99.99,,,-99.99,,2013-02-13 17:21:00,
2013-02-13 09:31:00,31.0,21.0,-100.00,WNW,287,1.0,3.0,68,-99.99,,,-99.99,,2013-02-13 17:31:00,
2013-02-13 09:41:00,33.0,23.0,-100.00,SSW,192,1.0,2.0,66,-99.99,,,-99.99,,2013-02-13 17:41:00,
2013-02-13 09:52:00,33.0,23.0,-100.00,SSW,192,1.0,2.0,66,-99.99,,,-99.99,,2013-02-13 17:52:00,
2013-02-13 10:01:00,34.0,22.0,-100.00,WNW,291,1.0,3.0,62,-99.99,,,-99.99,,2013-02-13 18:01:00,
2013-02-13 10:11:00,34.0,22.0,-100.00,WNW,291,1.0,3.0,62,-99.99,,,-99.99,,2013-02-13 18:11:00,
2013-02-13 10:22:00,36.0,22.0,-100.00,SW,229,2.0,6.0,57,-99.99,,,-99.99,,2013-02-13 18:22:00,
2013-02-13 10:32:00,37.0,22.0,-100.00,WSW,243,2.0,4.0,53,-99.99,,,-99.99,,2013-02-13 18:32:00,
2013-02-13 10:41:00,37.0,22.0,-100.00,WSW,243,2.0,4.0,53,-99.99,,,-99.99,,2013-02-13 18:41:00,
2013-02-13 10:52:00,40.0,21.0,-100.00,South,186,2.0,6.0,46,-99.99,,,-99.99,,2013-02-13 18:52:00,
2013-02-13 11:01:00,40.0,21.0,-100.00,South,186,2.0,6.0,46,-99.99,,,-99.99,,2013-02-13 19:01:00,
2013-02-13 11:11:00,41.0,22.0,-100.00,West,261,3.0,6.0,46,-99.99,,,-99.99,,2013-02-13 19:11:00,
2013-02-13 11:21:00,41.0,22.0,-100.00,West,261,3.0,6.0,46,-99.99,,,-99.99,,2013-02-13 19:21:00,
2013-02-13 11:31:00,42.0,21.0,-100.00,NW,315,1.0,4.0,42,-99.99,,,-99.99,,2013-02-13 19:31:00,
2013-02-13 11:41:00,42.0,21.0,-100.00,NW,315,1.0,4.0,42,-99.99,,,-99.99,,2013-02-13 19:41:00,
2013-02-13 11:52:00,44.0,20.0,-100.00,NNW,329,2.0,6.0,38,-99.99,,,-99.99,,2013-02-13 19:52:00,
2013-02-13 12:02:00,44.0,20.0,-100.00,NNW,329,2.0,6.0,38,-99.99,,,-99.99,,2013-02-13 20:02:00,
2013-02-13 12:11:00,45.0,19.0,-100.00,NW,308,2.0,6.0,36,-99.99,,,-99.99,,2013-02-13 20:11:00,
2013-02-13 12:21:00,45.0,19.0,-100.00,NW,308,2.0,6.0,36,-99.99,,,-99.99,,2013-02-13 20:21:00,
2013-02-13 12:31:00,47.0,21.0,-100.00,NW,305,2.0,6.0,35,-99.99,,,-99.99,,2013-02-13 20:31:00,
2013-02-13 12:41:00,47.0,21.0,-100.00,NW,305,2.0,6.0,35,-99.99,,,-99.99,,2013-02-13 20:41:00,
2013-02-13 12:52:00,47.0,19.0,-100.00,WNW,289,4.0,8.0,32,-99.99,,,-99.99,,2013-02-13 20:52:00,
2013-02-13 13:01:00,47.0,19.0,-100.00,WNW,289,4.0,8.0,32,-99.99,,,-99.99,,2013-02-13 21:01:00,
2013-02-13 13:11:00,48.0,18.0,-100.00,WNW,291,3.0,8.0,30,-99.99,,,-99.99,,2013-02-13 21:11:00,
2013-02-13 13:21:00,48.0,18.0,-100.00,WNW,291,3.0,8.0,30,-99.99,,,-99.99,,2013-02-13 21:21:00,
2013-02-13 13:31:00,50.0,20.0,-100.00,North,7,2.0,8.0,31,-99.99,,,-99.99,,2013-02-13 21:31:00,
2013-02-13 13:42:00,50.0,20.0,-100.00,North,7,2.0,8.0,31,-99.99,,,-99.99,,2013-02-13 21:42:00,
2013-02-13 13:52:00,49.0,20.0,-100.00,WNW,296,3.0,8.0,31,-99.99,,,-99.99,,2013-02-13 21:52:00,
2013-02-13 14:02:00,49.0,20.0,-100.00,WNW,296,3.0,8.0,31,-99.99,,,-99.99,,2013-02-13 22:02:00,
2013-02-13 14:11:00,50.0,20.0,-100.00,North,359,4.0,10.0,30,-99.99,,,-99.99,,2013-02-13 22:11:00,
2013-02-13 14:21:00,50.0,20.0,-100.00,North,359,4.0,10.0,30,-99.99,,,-99.99,,2013-02-13 22:21:00,
2013-02-13 14:31:00,51.0,22.0,-100.00,WNW,284,3.0,8.0,31,-99.99,,,-99.99,,2013-02-13 22:31:00,
2013-02-13 14:42:00,51.0,22.0,-100.00,WNW,284,3.0,8.0,31,-99.99,,,-99.99,,2013-02-13 22:42:00,
2013-02-13 14:52:00,51.0,21.0,-100.00,North,352,4.0,8.0,30,-99.99,,,-99.99,,2013-02-13 22:52:00,
2013-02-13 15:01:00,51.0,21.0,-100.00,North,352,4.0,8.0,30,-99.99,,,-99.99,,2013-02-13 23:01:00,
2013-02-13 15:11:00,52.0,22.0,-100.00,West,272,4.0,9.0,30,-99.99,,,-99.99,,2013-02-13 23:11:00,
2013-02-13 15:21:00,52.0,22.0,-100.00,West,272,4.0,9.0,30,-99.99,,,-99.99,,2013-02-13 23:21:00,
2013-02-13 15:32:00,52.0,22.0,-100.00,NW,308,4.0,8.0,30,-99.99,,,-99.99,,2013-02-13 23:32:00,
2013-02-13 15:41:00,52.0,22.0,-100.00,NW,308,4.0,8.0,30,-99.99,,,-99.99,,2013-02-13 23:41:00,
2013-02-13 15:52:00,52.0,22.0,-100.00,WNW,287,5.0,10.0,30,-99.99,,,-99.99,,2013-02-13 23:52:00,
2013-02-13 16:01:00,52.0,22.0,-100.00,WNW,287,5.0,10.0,30,-99.99,,,-99.99,,2013-02-14 00:01:00,
2013-02-13 16:11:00,53.0,22.0,-100.00,WSW,258,4.0,8.0,30,-99.99,,,-99.99,,2013-02-14 00:11:00,
2013-02-13 16:21:00,53.0,22.0,-100.00,WSW,258,4.0,8.0,30,-99.99,,,-99.99,,2013-02-14 00:21:00,
2013-02-13 16:31:00,53.0,22.0,-100.00,SW,233,3.0,7.0,29,-99.99,,,-99.99,,2013-02-14 00:31:00,
2013-02-13 16:42:00,53.0,22.0,-100.00,SW,233,3.0,7.0,29,-99.99,,,-99.99,,2013-02-14 00:42:00,
2013-02-13 16:52:00,53.0,23.0,-100.00,WSW,248,5.0,8.0,31,-99.99,,,-99.99,,2013-02-14 00:52:00,
2013-02-13 17:01:00,53.0,23.0,-100.00,WSW,248,5.0,8.0,31,-99.99,,,-99.99,,2013-02-14 01:01:00,
2013-02-13 17:11:00,52.0,22.0,-100.00,WSW,240,6.0,8.0,31,-99.99,,,-99.99,,2013-02-14 01:11:00,
2013-02-13 17:21:00,52.0,22.0,-100.00,WSW,240,6.0,8.0,31,-99.99,,,-99.99,,2013-02-14 01:21:00,
2013-02-13 17:31:00,52.0,22.0,-100.00,WSW,240,6.0,8.0,31,-99.99,,,-99.99,,2013-02-14 01:31:00,
2013-02-13 17:41:00,52.0,22.0,-100.00,WSW,240,6.0,8.0,31,-99.99,,,-99.99,,2013-02-14 01:41:00,
2013-02-13 17:51:00,45.0,22.0,-100.00,WSW,237,5.0,8.0,40,-99.99,,,-99.99,,2013-02-14 01:51:00,
2013-02-13 18:01:00,45.0,22.0,-100.00,WSW,237,5.0,8.0,40,-99.99,,,-99.99,,2013-02-14 02:01:00,
2013-02-13 18:11:00,42.0,22.0,-100.00,WSW,246,3.0,6.0,45,-99.99,,,-99.99,,2013-02-14 02:11:00,
2013-02-13 18:21:00,42.0,22.0,-100.00,WSW,246,3.0,6.0,45,-99.99,,,-99.99,,2013-02-14 02:21:00,
2013-02-13 18:31:00,44.0,22.0,-100.00,South,185,0.0,4.0,41,-99.99,,,-99.99,,2013-02-14 02:31:00,
2013-02-13 18:41:00,44.0,22.0,-100.00,South,185,0.0,4.0,41,-99.99,,,-99.99,,2013-02-14 02:41:00,
2013-02-13 18:52:00,44.0,22.0,-100.00,South,185,0.0,4.0,41,-99.99,,,-99.99,,2013-02-14 02:52:00,
2013-02-13 19:02:00,42.0,22.0,-100.00,NE,56,5.0,7.0,44,-99.99,,,-99.99,,2013-02-14 03:02:00,
2013-02-13 19:11:00,41.0,23.0,-100.00,NE,48,5.0,7.0,48,-99.99,,,-99.99,,2013-02-14 03:11:00,
2013-02-13 19:21:00,41.0,23.0,-100.00,NE,48,5.0,7.0,48,-99.99,,,-99.99,,2013-02-14 03:21:00,
2013-02-13 19:31:00,41.0,23.0,-100.00,East,89,4.0,7.0,48,-99.99,,,-99.99,,2013-02-14 03:31:00,
2013-02-13 19:42:00,41.0,23.0,-100.00,East,89,4.0,7.0,48,-99.99,,,-99.99,,2013-02-14 03:42:00,
2013-02-13 19:52:00,38.0,23.0,-100.00,WNW,296,2.0,5.0,55,-99.99,,,-99.99,,2013-02-14 03:52:00,
2013-02-13 20:01:00,38.0,23.0,-100.00,WNW,296,2.0,5.0,55,-99.99,,,-99.99,,2013-02-14 04:01:00,
2013-02-13 20:11:00,38.0,23.0,-100.00,West,281,2.0,4.0,53,-99.99,,,-99.99,,2013-02-14 04:11:00,
2013-02-13 20:21:00,38.0,23.0,-100.00,West,281,2.0,4.0,53,-99.99,,,-99.99,,2013-02-14 04:21:00,
2013-02-13 20:31:00,35.0,22.0,-100.00,South,174,0.0,2.0,59,-99.99,,,-99.99,,2013-02-14 04:31:00,
2013-02-13 20:41:00,35.0,22.0,-100.00,South,174,0.0,2.0,59,-99.99,,,-99.99,,2013-02-14 04:41:00,
2013-02-13 20:52:00,36.0,23.0,-100.00,ESE,109,1.0,6.0,57,-99.99,,,-99.99,,2013-02-14 04:52:00,
2013-02-13 21:01:00,36.0,23.0,-100.00,ESE,109,1.0,6.0,57,-99.99,,,-99.99,,2013-02-14 05:01:00,
2013-02-13 21:11:00,33.0,22.0,-100.00,ESE,110,5.0,6.0,63,-99.99,,,-99.99,,2013-02-14 05:11:00,
2013-02-13 21:21:00,33.0,22.0,-100.00,ESE,110,5.0,6.0,63,-99.99,,,-99.99,,2013-02-14 05:21:00,
2013-02-13 21:31:00,33.0,22.0,-100.00,SE,124,3.0,5.0,64,-99.99,,,-99.99,,2013-02-14 05:31:00,
2013-02-13 21:41:00,33.0,22.0,-100.00,SE,124,3.0,5.0,64,-99.99,,,-99.99,,2013-02-14 05:41:00,
2013-02-13 21:52:00,32.0,22.0,-100.00,ESE,119,4.0,6.0,66,-99.99,,,-99.99,,2013-02-14 05:52:00,
2013-02-13 22:01:00,32.0,22.0,-100.00,ESE,119,4.0,6.0,66,-99.99,,,-99.99,,2013-02-14 06:01:00,
2013-02-13 22:11:00,32.0,22.0,-100.00,ESE,114,5.0,7.0,67,-99.99,,,-99.99,,2013-02-14 06:11:00,
2013-02-13 22:21:00,32.0,22.0,-100.00,ESE,114,5.0,7.0,67,-99.99,,,-99.99,,2013-02-14 06:21:00,
2013-02-13 22:31:00,33.0,22.0,-100.00,ESE,109,5.0,6.0,64,-99.99,,,-99.99,,2013-02-14 06:31:00,
2013-02-13 22:41:00,33.0,22.0,-100.00,ESE,109,5.0,6.0,64,-99.99,,,-99.99,,2013-02-14 06:41:00,
2013-02-13 22:52:00,32.0,22.0,-100.00,East,93,2.0,6.0,66,-99.99,,,-99.99,,2013-02-14 06:52:00,
2013-02-13 23:01:00,32.0,22.0,-100.00,East,93,2.0,6.0,66,-99.99,,,-99.99,,2013-02-14 07:01:00,
2013-02-13 23:11:00,31.0,22.0,-100.00,ENE,72,2.0,3.0,68,-99.99,,,-99.99,,2013-02-14 07:11:00,
2013-02-13 23:21:00,31.0,22.0,-100.00,ENE,72,2.0,3.0,68,-99.99,,,-99.99,,2013-02-14 07:21:00,
2013-02-13 23:31:00,29.0,23.0,-100.00,WNW,292,3.0,5.0,76,-99.99,,,-99.99,,2013-02-14 07:31:00,
2013-02-13 23:41:00,29.0,23.0,-100.00,WNW,292,3.0,5.0,76,-99.99,,,-99.99,,2013-02-14 07:41:00,
2013-02-13 23:52:00,28.0,20.0,-100.00,NNE,14,3.0,5.0,73,-99.99,,,-99.99,,2013-02-14 07:52:00,